TITAN 3C TRANSTAGE DEB, 26765

Orbit data source: Space-Track

TITAN 3C TRANSTAGE DEB, 26765 is space debris in HEO originally from a launch on Tue, 21 Dec 1965 UTC launched from the Air Force Eastern Test Range (AFETR). Debris objects in space refer to the collection of defunct objects orbiting the Earth. Examples of debris include non-operational satellites, rocket bodies, and fragments generated from explosions, collisions, or faulty payload assembly.

Loading next visibility...
Identifier
26765, 1965-108AU
Orbit
HEO
Country
Flag of USUS
Related business
Manufacturer
Unknown
Mission
Spacecraft
Bus & Motor
Unknown
Mass
Unknown
Launch date (UTC)
1965-12-21 (60 years ago)
Launch vehicle
Unknown
Launch site
Air Force Eastern Test Range (AFETR)
Object type
Payload
Rocket body
Debris
Shape & HBR
Unknown shape, 0.1 m
Radar Cross Section
Medium (>0.1 m² and <1 m²)

Expand to show TLE details & history
Last TLE update: 20 hours ago

TLE from 20 hours ago
0 TITAN 3C TRANSTAGE DEB
1 26765U 65108AU  25342.38018822 -.00000543  00000-0 -17432-1 0  9996
2 26765  26.9891  41.0946 6699381 114.2500 354.9999  2.68918777 16912
Epoch: 2025-12-08T09:07Z
TLE epoch observation values (Epoch: 2025-12-08T09:07:28.262Z)
Latitude
26.84739°
Longitude
-91.87966°
Altitude
1,313.744 km
Speed
9.243 km/s
True Right ascension
08h 09m 28s
True Declination
26° 43' 09"
Sunlit
Object was in full shadow at epoch
Visualization orbit readout
Latitude
Unknown
Longitude
Unknown
Altitude
Unknown
Speed
Unknown
Apparent Right ascension
Unknown
Apparent Declination
Unknown
Sunlit
N/A
Visualization observer readout
Local Sidereal Time
03:34:28
Azimuth
Unknown
Elevation
Unknown
Doppler factor
Unknown
Orbital elements
Apogee altitude
30,104.77 km
Perigee altitude
832.68 km
Semi-major axis
21,846.862 km
Eccentricity
0.66994
Inclination
26.9891°
RAAN
41.0946°
Arg. of periapsis
114.25°
True anomaly
327.39834°
Mean anomaly
354.9999°
Eccentric anomaly
345.18499°
Mean motion
0.67214 °/min
Orbital period
535.6 mins
BSTAR
-0.017432
Loading maneuver chart data...
Computing Atmospheric mass density...

Documentation

Showing up to 5 results
|